Regional Weather Roundup
Issued by NWS

Home | Current Version | Previous Version | Text Only | Print | Product List | Glossary Off
Versions: 1 2 3 4 5 6 7 8 9 10 11 12 13 14 15 16 17 18 19 20 21 22 23 24 25 26 27 28 29 30 31 32 33 34 35 36 37 38 39 40 41 42 43 44 45 46 47 48 49 50

000
ASUS43 KDMX 240201
RWRIA

WEATHER ROUNDUP FOR IOWA
NATIONAL WEATHER SERVICE DES MOINES IA
900 PM CDT SAT SEP 23 2017

NOTE: "FAIR" INDICATES FEW OR NO CLOUDS BELOW 12,000 FEET WITH NO
SIGNIFICANT WEATHER AND/OR OBSTRUCTIONS TO VISIBILITY.

* - THESE STATIONS ARE NOT NWS STATIONS...THUS NOT UNDER NWS
QUALITY CONTROL.  THEY ALSO DO NOT REPORT WEATHER SUCH
AS PRECIPITATION OR FOG.

IAZ001>003-012>014-020>022-031>034-043>046-240300-
   NORTHWEST IOWA

CITY           SKY/WX    TMP DP  RH WIND       PRES   REMARKS
CARROLL *      CLEAR     72  64  78 S6        29.94R
CHEROKEE *     CLOUDY    77  64  62 SE10      29.90R
DENISON *      CLOUDY    79  63  57 S14G22    29.93S HX  80
LE MARS *      CLOUDY    79  66  65 SE10      29.87S HX  81
ORANGE CITY *  MOCLDY    79  68  69 SE5       29.89S HX  81
SHELDON *      CLOUDY    79  66  65 SE9       29.88S HX  81
SIOUX CITY     CLOUDY    78  65  63 S8        29.87R HX  80
SPENCER        PTCLDY    76  64  66 SE10      29.91S
STORM LAKE *   CLOUDY    77  63  61 S9        29.93S
$$

IAZ055>058-069>071-079>083-090>094-240300-
   SOUTHWEST IOWA

CITY           SKY/WX    TMP DP  RH WIND       PRES   REMARKS
ATLANTIC *     CLEAR     79  64  61 S6        29.94S HX  81
AUDUBON *      CLEAR     70  64  83 CALM      29.96S
CLARINDA *     CLEAR     75  66  73 CALM      29.96S
COUNCIL BLFS * CLEAR     77  66  69 SE10      29.92R
CRESTON *      CLEAR     75  64  69 SE5       29.98S
HARLAN  *      CLOUDY    77  64  65 S7        29.97R
LAMONI         PTCLDY    80  65  59 SE6       29.97S HX  82
RED OAK *      CLEAR     75  64  69 S5        29.94R
SHENANDOAH *   CLEAR     77  66  69 SE6       29.93S
$$

IAZ047>049-059>061-072>074-084-240300-
   CENTRAL IOWA

CITY           SKY/WX    TMP DP  RH WIND       PRES   REMARKS
AMES           CLEAR     74  67  78 SE5       29.96R
ANKENY *       CLEAR     75  66  73 CALM      29.97S
BOONE *        CLEAR     75  64  69 SE7       29.96S
CHARITON *     CLEAR     75  66  73 SE6       29.97S
DES MOINES     PTCLDY    82  66  58 SE7       29.95S HX  84
GRINNELL*      CLEAR     73  64  72 CALM      30.00S
KNOXVILLE *    CLEAR     79  64  61 SE6       29.96S HX  81
MARSHALLTOWN   PTCLDY    77  64  64 SE6       29.97S
NEWTON *       CLEAR     75  64  69 SE7       29.98R
PELLA *        CLEAR     77  64  63 SE3       29.98S
PERRY *          N/A     74  63  66 SE5       29.96S
$$

IAZ004>006-015-016-023>025-035-036-240300-
   NORTH CENTRAL IOWA

CITY           SKY/WX    TMP DP  RH WIND       PRES   REMARKS
ALGONA *       CLOUDY    77  64  65 SE10      29.94S
CLARION *      CLEAR     75  66  73 SE9       29.96R
ESTHERVILLE    CLOUDY    73  65  75 S6        29.92R
FORT DODGE *   CLEAR     81  64  56 S6        29.95S HX  82
MASON CITY     CLEAR     73  62  68 S6        29.98S
FOREST CITY *    N/A     72  63  73 S7        29.96S
WEBSTER CITY * CLEAR     77  64  65 SE8       29.94S
IOWA FALLS *     N/A     76  64  67 SE7       29.99R
$$

IAZ007>011-017>019-026>030-037>042-050>054-066-240300-
   NORTHEAST IOWA

CITY           SKY/WX    TMP DP  RH WIND       PRES   REMARKS
CEDAR RAPIDS   CLEAR     77  63  61 SE3       29.99R
CHARLES CITY * CLEAR     75  64  69 SE7       29.98F
CLINTON *      CLEAR    N/A N/A N/A E6        30.02R
DECORAH *      CLEAR     77  64  65 SE7       29.99S
DUBUQUE        CLEAR     77  64  64 SE8       30.03R
MONTICELLO *   CLEAR     75  64  69 CALM      30.00S
OELWEIN *      CLEAR     73  64  73 SE7       30.01R
WATERLOO       CLEAR     79  61  53 SE6       29.97R HX  80
$$

IAZ064-065-067-068-078-240300-
   EAST CENTRAL IOWA

CITY           SKY/WX    TMP DP  RH WIND       PRES   REMARKS
DAVENPORT      CLEAR     76  64  66 SE6       30.03R
IOWA CITY      CLEAR     79  65  62 CALM      30.01R HX  81
MUSCATINE *    CLEAR     73  66  78 CALM      30.00R
QUAD CITIES    CLEAR     78  63  59 SE8       30.00R HX  80
$$

IAZ062-063-075>077-085>089-095>099-240300-
   SOUTHEAST IOWA

CITY           SKY/WX    TMP DP  RH WIND       PRES   REMARKS
BURLINGTON     CLEAR     80  64  58 SE5       30.00R HX  82
FAIRFIELD *    CLEAR     73  63  68 SE5       29.99R
FORT MADISON * CLEAR     81  63  54 SE6       30.01R HX  82
KEOKUK *       CLEAR     79  64  61 SE7       29.99R HX  81
OSKALOOSA *      N/A     75  63  65 SE6       29.99R
OTTUMWA        CLEAR     75  64  68 SE7       29.98R
WASHINGTON *   CLEAR     75  64  69 SE6       30.01R
$$

ABBREVIATIONS USED IN REMARKS
   TC - TEMPERATURES IN CELSIUS
  WCI - WIND CHILL INDEX
   HX - HEAT INDEX
  VSB - VISIBILITY
$$





USA.gov is the U.S. government's official web portal to all federal, state and local government web resources and services.